This is the latest recevied weather packets stored in our database for station/object AB8Y-13. If no packets are shown the sender has not sent any weather packets the latest 10 day(s).
| Time | Temp. | Humidity | Pressure | Rain* | Wind** | Luminosity | Snow |
|---|---|---|---|---|---|---|---|
| 1777687924 | 5° C | 55% | 1016.8 hPa | 0 mm | - | 0 W/m² | - |
| 1777687621 | 5° C | 56% | 1016.7 hPa | 0 mm | - | 0 W/m² | - |
| 1777687318 | 5° C | 52% | 1016.8 hPa | 0 mm | - | 0 W/m² | - |
| 1777687017 | 5° C | 54% | 1016.8 hPa | 0 mm | - | 0 W/m² | - |
| 1777686712 | 5° C | 54% | 1016.6 hPa | 0 mm | - | 0 W/m² | - |
| 1777686410 | 5° C | 58% | 1016.7 hPa | 0 mm | - | 0 W/m² | - |
| 1777686107 | 5° C | 56% | 1016.5 hPa | 0 mm | - | 0 W/m² | - |
| 1777685803 | 5° C | 58% | 1016.6 hPa | 0 mm | - | 0 W/m² | - |
| 1777685498 | 4.44° C | 65% | 1016.9 hPa | 0 mm | - | 0 W/m² | - |
| 1777685196 | 5° C | 61% | 1016.8 hPa | 0 mm | - | 0 W/m² | - |
| 1777684894 | 5° C | 63% | 1016.6 hPa | 0 mm | - | 0 W/m² | - |
| 1777684590 | 5° C | 57% | 1016.6 hPa | 0 mm | - | 0 W/m² | - |
| 1777684286 | 5° C | 57% | 1016.5 hPa | 0 mm | - | 0 W/m² | - |
| 1777683984 | 5° C | 57% | 1016.6 hPa | 0 mm | - | 0 W/m² | - |
| 1777683680 | 5.56° C | 57% | 1016.4 hPa | 0 mm | - | 0 W/m² | - |
| 1777683378 | 5.56° C | 56% | 1016.5 hPa | 0 mm | - | 0 W/m² | - |
| 1777683075 | 5.56° C | 54% | 1016.4 hPa | 0 mm | - | 0 W/m² | - |
| 1777682771 | 5.56° C | 56% | 1016.3 hPa | 0 mm | - | 0 W/m² | - |
| 1777682468 | 5.56° C | 54% | 1016.2 hPa | 0 mm | - | 0 W/m² | - |
| 1777682166 | 6.11° C | 58% | 1016.1 hPa | 0 mm | - | 1 W/m² | - |
| 1777681863 | 6.11° C | 56% | 1016.1 hPa | 0 mm | - | 1 W/m² | - |
| 1777681559 | 6.11° C | 57% | 1016 hPa | 0 mm | - | 2 W/m² | - |
| 1777681256 | 6.11° C | 56% | 1016 hPa | 0 mm | - | 4 W/m² | - |
| 1777680954 | 6.11° C | 54% | 1015.9 hPa | 0 mm | - | 5 W/m² | - |
| 1777680651 | 6.67° C | 53% | 1015.8 hPa | 0 mm | - | 8 W/m² | - |
* Rain latest hour (hover to see other rain measurements)
** Current wind speed in m/s (hover to see current wind gust speed)